• Join FlightAware (Why Join?)
  • Login
  • US Flag 
12:03PM EDT


 

Airport Tracker/Info


-or-


 

Live Flight TrackerFlight Track Log ✈ N400CE ✈ 26-May-2014 ✈ KFFC - KBKV

Flight Track Log - Related Links

Times and Time Zones

All times are in EDT time to prevent confusion due to time zone crossing. See the N400CE flight status page for this flight to view local times or setup timezone preferences in your user account.

Time Position Orientation Groundspeed Altitude Reporting Facility
EDT Latitude Longitude Course Direction KTS MPH feet Rate Location/Type
04:01PM 33.3167 -84.5833 157° South 138 159 2,600  Level Atlanta TRACON
04:02PM 33.2833 -84.5667 157° South 136 157 3,300 720 Climbing Atlanta TRACON
04:03PM 33.2333 -84.5667 180° South 137 158 4,100 840 Climbing Atlanta TRACON
04:04PM 33.2000 -84.5500 157° South 142 163 5,100 840 Climbing Atlanta TRACON
04:05PM 33.1667 -84.5333 157° South 144 166 5,900 720 Climbing Atlanta TRACON
04:06PM 33.1169 -84.5325 179° South 147 169 6,800 840 Climbing Atlanta Center
04:07PM 33.0775 -84.5197 165° South 142 163 7,800 900 Climbing Atlanta Center
04:08PM 33.0378 -84.5122 171° South 142 163 8,600 840 Climbing Atlanta Center
04:09PM 32.9961 -84.5069 174° South 142 163 9,500 1,020 Climbing Atlanta Center
04:10PM 32.9564 -84.4944 165° South 142 163 10,700 1,020 Climbing Atlanta Center
04:11PM 32.9189 -84.4917 176° South 142 163 11,600 900 Climbing Atlanta Center
04:12PM 32.8772 -84.4842 171° South 147 169 12,500 900 Climbing Atlanta Center
04:13PM 32.8333 -84.4789 174° South 147 169 13,400 840 Climbing Atlanta Center
04:14PM 32.7917 -84.4689 169° South 152 175 14,200 720 Climbing Atlanta Center
04:15PM 32.7436 -84.4636 175° South 159 183 14,900 360 Climbing Atlanta Center
04:16PM 32.6936 -84.4583 175° South 170 196 15,000  Climbing Atlanta Center
04:17PM 32.6392 -84.4508 173° South 182 209 15,000  Level Atlanta Center
04:18PM 32.5831 -84.4431 173° South 195 224 15,000  Level Atlanta Center
04:19PM 32.5267 -84.4331 171° South 201 231 15,000  Level Atlanta Center
04:20PM 32.4725 -84.4206 169° South 201 231 15,000  Level Atlanta Center
04:21PM 32.4161 -84.4081 169° South 201 231 15,000  Level Atlanta Center
04:22PM 32.3619 -84.3906 165° South 201 231 15,000  Level Atlanta Center
04:24PM 32.2458 -84.3492 163° South 204 235 15,000  Level Jacksonville Center
04:25PM 32.1875 -84.3433 175° South 204 235 15,000  Level Jacksonville Center
04:26PM 32.1333 -84.3350 173° South 204 235 15,000  Level Jacksonville Center
04:27PM 32.0750 -84.3294 175° South 199 229 15,000  Level Jacksonville Center
04:28PM 32.0206 -84.3236 175° South 199 229 15,000  Level Jacksonville Center
04:29PM 31.9664 -84.3203 177° South 199 229 15,000  Level Jacksonville Center
04:30PM 31.9100 -84.3144 175° South 199 229 15,000  Level Jacksonville Center
04:31PM 31.8558 -84.3114 177° South 199 229 15,000  Level Jacksonville Center
04:32PM 31.8017 -84.3056 175° South 199 229 15,000  Level Jacksonville Center
04:33PM 31.7453 -84.2925 169° South 199 229 15,000  Level Jacksonville Center
04:34PM 31.6936 -84.2672 157° South 199 229 15,000  Level Jacksonville Center
04:35PM 31.6417 -84.2397 156° South 205 236 15,000  Level Jacksonville Center
04:36PM 31.5917 -84.2144 157° South 210 242 15,000  Level Jacksonville Center
04:37PM 31.5397 -84.1869 156° South 210 242 15,000  Level Jacksonville Center
04:38PM 31.4878 -84.1619 158° South 210 242 15,000  Level Jacksonville Center
04:39PM 31.4381 -84.1319 153° Southeast 210 242 15,000  Level Jacksonville Center
04:40PM 31.3842 -84.1069 158° South 210 242 15,000  Level Jacksonville Center
04:41PM 31.3342 -84.0794 155° Southeast 210 242 15,000  Level Jacksonville Center
04:42PM 31.2822 -84.0544 158° South 210 242 15,000  Level Jacksonville Center
04:43PM 31.2303 -84.0297 158° South 210 242 15,000  Level Jacksonville Center
04:44PM 31.1803 -84.0022 155° Southeast 210 242 15,000  Level Jacksonville Center
04:45PM 31.1306 -83.9750 155° Southeast 210 242 15,000  Level Jacksonville Center
04:46PM 31.0764 -83.9500 158° South 210 242 15,000  Level Jacksonville Center
04:47PM 31.0267 -83.9231 155° Southeast 210 242 15,000  Level Jacksonville Center
04:48PM 30.9744 -83.8981 158° South 210 242 15,000  Level Jacksonville Center
04:49PM 30.9247 -83.8708 155° Southeast 210 242 15,000  Level Jacksonville Center
04:50PM 30.8725 -83.8461 158° South 210 242 15,000  Level Jacksonville Center
04:51PM 30.8206 -83.8239 160° South 210 242 15,000  Level Jacksonville Center
04:52PM 30.7686 -83.8017 160° South 210 242 15,000  Level Jacksonville Center
04:53PM 30.7167 -83.7769 158° South 205 236 15,000  Level Jacksonville Center
04:54PM 30.6625 -83.7547 161° South 205 236 15,000  Level Jacksonville Center
04:55PM 30.6103 -83.7372 164° South 205 236 15,000  Level Jacksonville Center
04:56PM 30.5603 -83.7128 157° South 205 236 15,000  Level Jacksonville Center
04:57PM 30.5042 -83.6906 161° South 205 236 15,000  Level Jacksonville Center
04:58PM 30.4500 -83.6708 163° South 205 236 15,000  Level Jacksonville Center
04:59PM 30.3978 -83.6489 160° South 205 236 15,000  Level Jacksonville Center
05:00PM 30.3458 -83.6242 158° South 205 236 15,000  Level Jacksonville Center
05:01PM 30.2939 -83.6047 162° South 205 236 15,000  Level Jacksonville Center
05:02PM 30.2417 -83.5828 160° South 205 236 15,000  Level Jacksonville Center
05:03PM 30.1853 -83.5631 163° South 205 236 15,000  Level Jacksonville Center
05:04PM 30.1311 -83.5458 165° South 205 236 15,000  Level Jacksonville Center
05:05PM 30.0769 -83.5286 165° South 205 236 15,000  Level Jacksonville Center
05:06PM 30.0208 -83.5164 169° South 205 236 15,000  Level Jacksonville Center
05:07PM 29.9644 -83.5014 167° South 205 236 15,000  Level Jacksonville Center
05:08PM 29.9103 -83.4892 169° South 205 236 15,000  Level Jacksonville Center
05:09PM 29.8558 -83.4769 169° South 200 230 15,000  Level Jacksonville Center
05:10PM 29.8017 -83.4575 163° South 200 230 15,000  Level Jacksonville Center
05:11PM 29.7497 -83.4356 160° South 200 230 15,000 -300 Level Jacksonville Center
05:12PM 29.6997 -83.4067 153° Southeast 210 242 14,400 -600 Descending Jacksonville Center
05:13PM 29.6456 -83.3706 150° Southeast 215 247 13,800 -600 Descending Jacksonville Center
05:14PM 29.5978 -83.3319 145° Southeast 220 253 13,300 -540 Descending Jacksonville Center
05:15PM 29.5456 -83.2936 147° Southeast 220 253 12,800 -480 Descending Jacksonville Center
05:16PM 29.4956 -83.2553 146° Southeast 220 253 12,400 -900 Descending Jacksonville Center
05:17PM 29.4436 -83.2192 149° Southeast 220 253 11,000 -1,320 Descending Jacksonville Center
05:18PM 29.3894 -83.1833 150° Southeast 225 259 9,800 -1,020 Descending Jacksonville Center
05:19PM 29.3350 -83.1569 157° South 219 252 9,000 -420 Descending Jacksonville Center
05:20PM 29.2850 -83.1331 157° South 208 239 9,000  Level Jacksonville Center
05:21PM 29.2392 -83.1139 160° South 191 220 9,000  Level Jacksonville Center
05:22PM 29.1911 -83.0947 161° South 186 214 9,000 -240 Level Jacksonville Center
05:23PM 29.1433 -83.0756 161° South 186 214 8,600 -720 Descending Jacksonville Center
05:24PM 29.0889 -83.0589 165° South 186 214 7,600 -1,140 Descending Jacksonville Center
05:25PM 29.0347 -83.0350 159° South 196 226 6,400 -1,140 Descending Jacksonville Center
05:26PM 28.9908 -82.9947 141° Southeast 196 226 5,400 -720 Descending Jacksonville Center
05:27PM 28.9492 -82.9614 145° Southeast 196 226 5,000 -240 Descending Jacksonville Center
05:28PM 28.9139 -82.9211 135° Southeast 184 212 5,000 -300 Level Jacksonville Center
05:29PM 28.8803 -82.8856 137° Southeast 179 206 4,400 -600 Descending Jacksonville Center
05:30PM 28.8428 -82.8522 142° Southeast 174 200 3,900 -420 Descending Jacksonville Center
05:31PM 28.8094 -82.8119 133° Southeast 174 200 3,600 -360 Descending Jacksonville Center
05:33PM 28.7447 -82.7358 134° Southeast 171 197 3,000 -360 Descending Miami Center
05:34PM 28.7117 -82.7003 137° Southeast 167 192 2,700 -420 Descending Miami Center
05:35PM 28.6769 -82.6628 137° Southeast 168 193 2,200 -300 Descending Miami Center
05:36PM 28.6408 -82.6244 137° Southeast 173 199 2,100 -240 Descending Miami Center
05:37PM 28.6000 -82.5833 139° Southeast 175 201 1,800 -60 Descending Tampa TRACON
05:38PM 28.5500 -82.5500 150° Southeast 159 183 2,000  Climbing Tampa TRACON
05:39PM 28.5167 -82.5333 156° South 141 162 1,800 -360 Descending Tampa TRACON
05:40PM 28.5000 -82.5167 139° Southeast 111 128 1,300 -600 Descending Tampa TRACON
05:41PM 28.4833 -82.5000 139° Southeast 89 102 700 -540 Descending Tampa TRACON
05:42PM 28.4833 -82.4667 90° East 77 89 300 -240 Descending Tampa TRACON
05:43PM 28.4833 -82.4667 90° East 77 89 300  Level Tampa TRACON